Regional Weather Roundup
Issued by NWS Charleston, WV

Home | Current Version | Previous Version | Graphics & Text | Print | Product List | Glossary On
Versions: 1 2 3 4 5 6 7 8 9 10 11 12 13 14 15 16 17 18 19 20 21 22 23 24 25 26 27 28 29 30 31 32 33 34 35 36 37 38 39 40 41 42 43 44 45 46 47 48 49 50
000
ASUS41 KRLX 291610
RWRRLX
West Virginia Regional Weather Roundup
National Weather Service Charleston WV
1200 PM EDT WED MAR 29 2017

Note: "fair" indicates few or no clouds below 12,000 feet with no
significant weather and/or obstructions to visibility.

WVZ003-291700-
Northern Panhandle of West Virginia

CITY           SKY/WX    TMP DP  RH WIND       PRES   REMARKS
WHEELING       MOSUNNY   51  37  58 N7        30.22S
$$

WVZ009-291700-
Northwest West Virginia

CITY           SKY/WX    TMP DP  RH WIND       PRES   REMARKS
PARKERSBURG    CLOUDY    50  40  68 NE9       30.24R
$$

WVZ006-291700-
Western West Virginia

CITY           SKY/WX    TMP DP  RH WIND       PRES   REMARKS
HUNTINGTON     CLOUDY    52  44  74 NE5       30.18F
$$

WVZ015-291700-
West Central West Virginia

CITY           SKY/WX    TMP DP  RH WIND       PRES   REMARKS
CHARLESTON     CLOUDY    53  44  71 NW3       30.18S
$$

WVZ022-031-291700-
North Central West Virginia

CITY           SKY/WX    TMP DP  RH WIND       PRES   REMARKS
CLARKSBURG     CLOUDY    48  40  73 NE5       30.21R
MORGANTOWN     CLOUDY    51  38  60 N6        30.22R
$$

WVZ025-035-042-045-291700-
Southern West Virginia

CITY           SKY/WX    TMP DP  RH WIND       PRES   REMARKS
BECKLEY        CLOUDY    52  44  74 N6        30.17R
LOGAN          CLOUDY    54  48  82 CALM      30.16S
BLUEFIELD      MOSUNNY   55  43  63 SE7       30.15S
LEWISBURG      SUNNY     57  44  61 CALM      30.15R
$$

WVZ047-291700-
Northern Mountains of West Virginia

CITY           SKY/WX    TMP DP  RH WIND       PRES   REMARKS
ELKINS         CLOUDY    49  40  71 N6        30.18R
$$

WVZ052-291700-
Eastern Panhandle of West Virginia

CITY           SKY/WX    TMP DP  RH WIND       PRES   REMARKS
MARTINSBURG    SUNNY     57  38  48 N13       30.15F
PETERSBURG     MOSUNNY   58  44  58 E6        30.17S
$$



USA.gov is the U.S. government's official web portal to all federal, state and local government web resources and services.